Wetterdaten: Montag, 14.03.2016
Datum Zeit Temperatur Luftfeuchte Luftdruck Regen Wind Richtung Richtung Sonnenschein ET UV Solar Taupunkt Windchill Windben
14.03.2016 00:00 0,2 C 82 % 1034,0 hPa 0,0 l/m 6,3 km/h (2 Bft) O-NO 64 0 min 0,000 mm 0,0 UV-I 0 W/m -2,5 C 0,2 C 14,5 km/h (3 Bft)
14.03.2016 00:05 0,3 C 82 % 1033,9 hPa 0,0 l/m 5,6 km/h (1 Bft) O-NO 69 0 min 0,000 mm 0,0 UV-I 0 W/m -2,4 C 0,3 C 19,3 km/h (3 Bft)
14.03.2016 00:10 0,3 C 82 % 1034,0 hPa 0,0 l/m 7,0 km/h (2 Bft) O-NO 65 0 min 0,000 mm 0,0 UV-I 0 W/m -2,4 C -0,3 C 16,1 km/h (3 Bft)
14.03.2016 00:15 0,3 C 82 % 1034,0 hPa 0,0 l/m 8,5 km/h (2 Bft) NO 45 0 min 0,000 mm 0,0 UV-I 0 W/m -2,4 C -1,8 C 20,9 km/h (4 Bft)
14.03.2016 00:20 0,4 C 82 % 1034,0 hPa 0,0 l/m 11,4 km/h (2 Bft) NO 41 0 min 0,000 mm 0,0 UV-I 0 W/m -2,3 C -4,1 C 20,9 km/h (4 Bft)
14.03.2016 00:25 0,4 C 82 % 1034,0 hPa 0,0 l/m 8,2 km/h (2 Bft) O-NO 62 0 min 0,000 mm 0,0 UV-I 0 W/m -2,3 C -1,4 C 14,5 km/h (3 Bft)
14.03.2016 00:30 0,3 C 82 % 1034,0 hPa 0,0 l/m 5,6 km/h (1 Bft) NO 55 0 min 0,000 mm 0,0 UV-I 0 W/m -2,4 C 0,3 C 12,9 km/h (3 Bft)
14.03.2016 00:35 0,2 C 82 % 1034,0 hPa 0,0 l/m 6,0 km/h (2 Bft) O-NO 71 0 min 0,000 mm 0,0 UV-I 0 W/m -2,5 C 0,2 C 14,5 km/h (3 Bft)
14.03.2016 00:40 0,2 C 82 % 1034,1 hPa 0,0 l/m 4,4 km/h (1 Bft) O-NO 59 0 min 0,000 mm 0,0 UV-I 0 W/m -2,5 C 0,2 C 11,3 km/h (2 Bft)
14.03.2016 00:45 0,1 C 82 % 1034,1 hPa 0,0 l/m 6,1 km/h (2 Bft) O-SO 103 0 min 0,000 mm 0,0 UV-I 0 W/m -2,6 C 0,1 C 14,5 km/h (3 Bft)
14.03.2016 00:50 0,1 C 82 % 1034,1 hPa 0,0 l/m 6,0 km/h (2 Bft) O-NO 76 0 min 0,000 mm 0,0 UV-I 0 W/m -2,6 C 0,1 C 12,9 km/h (3 Bft)
14.03.2016 00:55 0,1 C 82 % 1034,1 hPa 0,0 l/m 1,5 km/h (1 Bft) O-NO 62 0 min 0,000 mm 0,0 UV-I 0 W/m -2,6 C 0,1 C 8,0 km/h (2 Bft)
14.03.2016 01:00 0,1 C 82 % 1034,1 hPa 0,0 l/m 0,0 km/h (0 Bft) O-NO 75 0 min 0,025 mm 0,0 UV-I 0 W/m -2,6 C 0,1 C 0,0 km/h (0 Bft)
14.03.2016 01:05 0,1 C 82 % 1034,1 hPa 0,0 l/m 2,8 km/h (1 Bft) N-NO 31 0 min 0,000 mm 0,0 UV-I 0 W/m -2,6 C 0,1 C 16,1 km/h (3 Bft)
14.03.2016 01:10 0,0 C 82 % 1034,1 hPa 0,0 l/m 7,3 km/h (2 Bft) NO 48 0 min 0,000 mm 0,0 UV-I 0 W/m -2,7 C -0,9 C 19,3 km/h (3 Bft)
14.03.2016 01:15 0,0 C 82 % 1034,1 hPa 0,0 l/m 3,1 km/h (1 Bft) O-NO 72 0 min 0,000 mm 0,0 UV-I 0 W/m -2,7 C 0,0 C 12,9 km/h (3 Bft)
14.03.2016 01:20 -0,1 C 82 % 1034,1 hPa 0,0 l/m 2,1 km/h (1 Bft) O 82 0 min 0,000 mm 0,0 UV-I 0 W/m -2,8 C -0,1 C 11,3 km/h (2 Bft)
14.03.2016 01:25 -0,1 C 82 % 1034,1 hPa 0,0 l/m 4,1 km/h (1 Bft) O-NO 64 0 min 0,000 mm 0,0 UV-I 0 W/m -2,8 C -0,1 C 11,3 km/h (2 Bft)
14.03.2016 01:30 -0,1 C 83 % 1034,1 hPa 0,0 l/m 3,8 km/h (1 Bft) NO 54 0 min 0,000 mm 0,0 UV-I 0 W/m -2,6 C -0,1 C 12,9 km/h (3 Bft)
14.03.2016 01:35 -0,1 C 83 % 1034,2 hPa 0,0 l/m 4,4 km/h (1 Bft) O 80 0 min 0,000 mm 0,0 UV-I 0 W/m -2,6 C -0,1 C 12,9 km/h (3 Bft)
14.03.2016 01:40 -0,1 C 83 % 1034,2 hPa 0,0 l/m 9,1 km/h (2 Bft) O 84 0 min 0,000 mm 0,0 UV-I 0 W/m -2,6 C -2,8 C 22,5 km/h (4 Bft)
14.03.2016 01:45 -0,1 C 83 % 1034,2 hPa 0,0 l/m 5,7 km/h (1 Bft) O-NO 67 0 min 0,000 mm 0,0 UV-I 0 W/m -2,6 C -0,1 C 14,5 km/h (3 Bft)
14.03.2016 01:50 0,0 C 83 % 1034,2 hPa 0,0 l/m 7,4 km/h (2 Bft) O-NO 57 0 min 0,000 mm 0,0 UV-I 0 W/m -2,5 C -1,0 C 19,3 km/h (3 Bft)
14.03.2016 01:55 0,0 C 83 % 1034,1 hPa 0,0 l/m 7,5 km/h (2 Bft) NO 42 0 min 0,000 mm 0,0 UV-I 0 W/m -2,5 C -1,1 C 19,3 km/h (3 Bft)
14.03.2016 02:00 0,0 C 83 % 1034,1 hPa 0,0 l/m 5,8 km/h (2 Bft) O 85 0 min 0,000 mm 0,0 UV-I 0 W/m -2,5 C 0,0 C 16,1 km/h (3 Bft)
14.03.2016 02:05 0,0 C 83 % 1034,1 hPa 0,0 l/m 7,3 km/h (2 Bft) O-NO 71 0 min 0,000 mm 0,0 UV-I 0 W/m -2,5 C -0,9 C 22,5 km/h (4 Bft)
14.03.2016 02:10 0,0 C 83 % 1034,1 hPa 0,0 l/m 8,3 km/h (2 Bft) N-NO 29 0 min 0,000 mm 0,0 UV-I 0 W/m -2,5 C -1,9 C 24,1 km/h (4 Bft)
14.03.2016 02:15 0,1 C 83 % 1034,0 hPa 0,0 l/m 8,3 km/h (2 Bft) NO 39 0 min 0,000 mm 0,0 UV-I 0 W/m -2,4 C -1,8 C 16,1 km/h (3 Bft)
14.03.2016 02:20 0,1 C 83 % 1034,1 hPa 0,0 l/m 6,9 km/h (2 Bft) NO 43 0 min 0,000 mm 0,0 UV-I 0 W/m -2,4 C -0,4 C 17,7 km/h (3 Bft)
14.03.2016 02:25 0,1 C 83 % 1034,1 hPa 0,0 l/m 7,0 km/h (2 Bft) NO 49 0 min 0,000 mm 0,0 UV-I 0 W/m -2,4 C -0,5 C 12,9 km/h (3 Bft)
14.03.2016 02:30 0,1 C 83 % 1034,0 hPa 0,0 l/m 9,9 km/h (2 Bft) O 80 0 min 0,000 mm 0,0 UV-I 0 W/m -2,4 C -3,3 C 22,5 km/h (4 Bft)
14.03.2016 02:35 0,1 C 83 % 1033,9 hPa 0,0 l/m 7,9 km/h (2 Bft) NO 42 0 min 0,000 mm 0,0 UV-I 0 W/m -2,4 C -1,4 C 19,3 km/h (3 Bft)
14.03.2016 02:40 0,1 C 83 % 1033,8 hPa 0,0 l/m 9,5 km/h (2 Bft) O-NO 73 0 min 0,000 mm 0,0 UV-I 0 W/m -2,4 C -2,9 C 20,9 km/h (4 Bft)
14.03.2016 02:45 0,1 C 83 % 1033,8 hPa 0,0 l/m 7,7 km/h (2 Bft) O-NO 57 0 min 0,000 mm 0,0 UV-I 0 W/m -2,4 C -1,2 C 19,3 km/h (3 Bft)
14.03.2016 02:50 0,2 C 83 % 1033,8 hPa 0,0 l/m 6,8 km/h (2 Bft) N-NO 22 0 min 0,000 mm 0,0 UV-I 0 W/m -2,3 C -0,2 C 12,9 km/h (3 Bft)
14.03.2016 02:55 0,2 C 83 % 1033,8 hPa 0,0 l/m 7,5 km/h (2 Bft) O-NO 60 0 min 0,000 mm 0,0 UV-I 0 W/m -2,3 C -0,9 C 16,1 km/h (3 Bft)
14.03.2016 03:00 0,2 C 83 % 1033,7 hPa 0,0 l/m 6,1 km/h (2 Bft) O-NO 65 0 min 0,026 mm 0,0 UV-I 0 W/m -2,3 C 0,2 C 14,5 km/h (3 Bft)
14.03.2016 03:05 0,2 C 83 % 1033,6 hPa 0,0 l/m 0,7 km/h (0 Bft) NO 50 0 min 0,000 mm 0,0 UV-I 0 W/m -2,3 C 0,2 C 11,3 km/h (2 Bft)
14.03.2016 03:10 0,2 C 83 % 1033,7 hPa 0,0 l/m 7,7 km/h (2 Bft) N-NO 32 0 min 0,000 mm 0,0 UV-I 0 W/m -2,3 C -1,1 C 22,5 km/h (4 Bft)
14.03.2016 03:15 0,2 C 83 % 1033,6 hPa 0,0 l/m 6,8 km/h (2 Bft) NO 53 0 min 0,000 mm 0,0 UV-I 0 W/m -2,3 C -0,2 C 14,5 km/h (3 Bft)
14.03.2016 03:20 0,2 C 83 % 1033,5 hPa 0,0 l/m 8,8 km/h (2 Bft) NO 49 0 min 0,000 mm 0,0 UV-I 0 W/m -2,3 C -2,2 C 24,1 km/h (4 Bft)
14.03.2016 03:25 0,3 C 83 % 1033,5 hPa 0,0 l/m 8,9 km/h (2 Bft) O 93 0 min 0,000 mm 0,0 UV-I 0 W/m -2,2 C -2,2 C 24,1 km/h (4 Bft)
14.03.2016 03:30 0,3 C 83 % 1033,5 hPa 0,0 l/m 5,4 km/h (1 Bft) NO 54 0 min 0,000 mm 0,0 UV-I 0 W/m -2,2 C 0,3 C 14,5 km/h (3 Bft)
14.03.2016 03:35 0,3 C 82 % 1033,6 hPa 0,0 l/m 8,5 km/h (2 Bft) O 88 0 min 0,000 mm 0,0 UV-I 0 W/m -2,4 C -1,8 C 19,3 km/h (3 Bft)
14.03.2016 03:40 0,3 C 82 % 1033,4 hPa 0,0 l/m 10,0 km/h (2 Bft) O 86 0 min 0,000 mm 0,0 UV-I 0 W/m -2,4 C -3,1 C 20,9 km/h (4 Bft)
14.03.2016 03:45 0,3 C 82 % 1033,4 hPa 0,0 l/m 8,3 km/h (2 Bft) NO 36 0 min 0,000 mm 0,0 UV-I 0 W/m -2,4 C -1,6 C 16,1 km/h (3 Bft)
14.03.2016 03:50 0,3 C 82 % 1033,3 hPa 0,0 l/m 6,8 km/h (2 Bft) NO 56 0 min 0,000 mm 0,0 UV-I 0 W/m -2,4 C -0,1 C 17,7 km/h (3 Bft)
14.03.2016 03:55 0,3 C 81 % 1033,4 hPa 0,0 l/m 9,5 km/h (2 Bft) O-NO 59 0 min 0,000 mm 0,0 UV-I 0 W/m -2,6 C -2,7 C 22,5 km/h (4 Bft)
14.03.2016 04:00 0,3 C 81 % 1033,3 hPa 0,0 l/m 11,8 km/h (2 Bft) NO 49 0 min 0,000 mm 0,0 UV-I 0 W/m -2,6 C -4,5 C 22,5 km/h (4 Bft)
14.03.2016 04:05 0,3 C 81 % 1033,3 hPa 0,0 l/m 9,4 km/h (2 Bft) NO 41 0 min 0,025 mm 0,0 UV-I 0 W/m -2,6 C -2,6 C 19,3 km/h (3 Bft)
14.03.2016 04:10 0,3 C 81 % 1033,4 hPa 0,0 l/m 6,5 km/h (2 Bft) NO 42 0 min 0,000 mm 0,0 UV-I 0 W/m -2,6 C 0,2 C 12,9 km/h (3 Bft)
14.03.2016 04:15 0,3 C 81 % 1033,3 hPa 0,0 l/m 8,2 km/h (2 Bft) NO 42 0 min 0,000 mm 0,0 UV-I 0 W/m -2,6 C -1,5 C 14,5 km/h (3 Bft)
14.03.2016 04:20 0,3 C 81 % 1033,4 hPa 0,0 l/m 8,1 km/h (2 Bft) NO 50 0 min 0,000 mm 0,0 UV-I 0 W/m -2,6 C -1,4 C 19,3 km/h (3 Bft)
14.03.2016 04:25 0,3 C 80 % 1033,3 hPa 0,0 l/m 13,2 km/h (3 Bft) O-NO 73 0 min 0,000 mm 0,0 UV-I 0 W/m -2,7 C -5,5 C 22,5 km/h (4 Bft)
14.03.2016 04:30 0,4 C 80 % 1033,3 hPa 0,0 l/m 12,4 km/h (3 Bft) O-NO 77 0 min 0,000 mm 0,0 UV-I 0 W/m -2,6 C -4,8 C 22,5 km/h (4 Bft)
14.03.2016 04:35 0,4 C 80 % 1033,3 hPa 0,0 l/m 9,5 km/h (2 Bft) NO 52 0 min 0,000 mm 0,0 UV-I 0 W/m -2,6 C -2,6 C 16,1 km/h (3 Bft)
14.03.2016 04:40 0,4 C 79 % 1033,4 hPa 0,0 l/m 9,4 km/h (2 Bft) NO 44 0 min 0,000 mm 0,0 UV-I 0 W/m -2,8 C -2,5 C 22,5 km/h (4 Bft)
14.03.2016 04:45 0,4 C 79 % 1033,4 hPa 0,0 l/m 8,9 km/h (2 Bft) O-NO 59 0 min 0,000 mm 0,0 UV-I 0 W/m -2,8 C -2,1 C 22,5 km/h (4 Bft)
14.03.2016 04:50 0,4 C 80 % 1033,4 hPa 0,0 l/m 10,3 km/h (2 Bft) NO 51 0 min 0,000 mm 0,0 UV-I 0 W/m -2,6 C -3,3 C 17,7 km/h (3 Bft)
14.03.2016 04:55 0,4 C 80 % 1033,5 hPa 0,0 l/m 7,6 km/h (2 Bft) O-NO 57 0 min 0,000 mm 0,0 UV-I 0 W/m -2,6 C -0,8 C 16,1 km/h (3 Bft)
14.03.2016 05:00 0,4 C 79 % 1033,4 hPa 0,0 l/m 12,8 km/h (3 Bft) O-NO 67 0 min 0,000 mm 0,0 UV-I 0 W/m -2,8 C -5,1 C 25,7 km/h (4 Bft)
14.03.2016 05:05 0,4 C 79 % 1033,3 hPa 0,0 l/m 13,8 km/h (3 Bft) O-SO 103 0 min 0,026 mm 0,0 UV-I 0 W/m -2,8 C -5,8 C 29,0 km/h (5 Bft)
14.03.2016 05:10 0,4 C 79 % 1033,3 hPa 0,0 l/m 11,7 km/h (2 Bft) NO 43 0 min 0,000 mm 0,0 UV-I 0 W/m -2,8 C -4,3 C 19,3 km/h (3 Bft)
14.03.2016 05:15 0,4 C 79 % 1033,3 hPa 0,0 l/m 6,2 km/h (2 Bft) O-NO 63 0 min 0,000 mm 0,0 UV-I 0 W/m -2,8 C 0,4 C 16,1 km/h (3 Bft)
14.03.2016 05:20 0,4 C 80 % 1033,4 hPa 0,0 l/m 7,9 km/h (2 Bft) NO 53 0 min 0,000 mm 0,0 UV-I 0 W/m -2,6 C -1,1 C 14,5 km/h (3 Bft)
14.03.2016 05:25 0,4 C 80 % 1033,4 hPa 0,0 l/m 6,6 km/h (2 Bft) O-NO 59 0 min 0,000 mm 0,0 UV-I 0 W/m -2,6 C 0,2 C 12,9 km/h (3 Bft)
14.03.2016 05:30 0,3 C 80 % 1033,5 hPa 0,0 l/m 9,5 km/h (2 Bft) O-NO 63 0 min 0,000 mm 0,0 UV-I 0 W/m -2,7 C -2,7 C 20,9 km/h (4 Bft)
14.03.2016 05:35 0,3 C 78 % 1033,5 hPa 0,0 l/m 12,3 km/h (3 Bft) O-NO 57 0 min 0,000 mm 0,0 UV-I 0 W/m -3,1 C -4,9 C 27,4 km/h (4 Bft)
14.03.2016 05:40 0,3 C 78 % 1033,6 hPa 0,0 l/m 8,6 km/h (2 Bft) O-SO 123 0 min 0,000 mm 0,0 UV-I 0 W/m -3,1 C -1,9 C 20,9 km/h (4 Bft)
14.03.2016 05:45 0,3 C 77 % 1033,6 hPa 0,0 l/m 12,6 km/h (3 Bft) O-NO 71 0 min 0,000 mm 0,0 UV-I 0 W/m -3,2 C -5,1 C 24,1 km/h (4 Bft)
14.03.2016 05:50 0,3 C 77 % 1033,5 hPa 0,0 l/m 13,2 km/h (3 Bft) O 85 0 min 0,000 mm 0,0 UV-I 0 W/m -3,2 C -5,5 C 29,0 km/h (5 Bft)
14.03.2016 05:55 0,2 C 77 % 1033,5 hPa 0,0 l/m 10,2 km/h (2 Bft) NO 40 0 min 0,000 mm 0,0 UV-I 0 W/m -3,3 C -3,4 C 27,4 km/h (4 Bft)
14.03.2016 06:00 0,2 C 76 % 1033,6 hPa 0,0 l/m 14,6 km/h (3 Bft) N-NO 33 0 min 0,000 mm 0,0 UV-I 0 W/m -3,5 C -6,5 C 22,5 km/h (4 Bft)
14.03.2016 06:05 0,2 C 76 % 1033,6 hPa 0,0 l/m 13,4 km/h (3 Bft) O-NO 75 0 min 0,025 mm 0,0 UV-I 0 W/m -3,5 C -5,7 C 24,1 km/h (4 Bft)
14.03.2016 06:10 0,2 C 76 % 1033,7 hPa 0,0 l/m 9,7 km/h (2 Bft) O-NO 76 0 min 0,000 mm 0,0 UV-I 0 W/m -3,5 C -3,0 C 20,9 km/h (4 Bft)
14.03.2016 06:15 0,2 C 77 % 1033,6 hPa 0,0 l/m 11,4 km/h (2 Bft) NO 50 0 min 0,000 mm 0,0 UV-I 0 W/m -3,3 C -4,3 C 22,5 km/h (4 Bft)
14.03.2016 06:20 0,2 C 77 % 1033,6 hPa 0,0 l/m 8,7 km/h (2 Bft) N-NO 30 0 min 0,000 mm 0,0 UV-I 0 W/m -3,3 C -2,1 C 24,1 km/h (4 Bft)
14.03.2016 06:25 0,2 C 77 % 1033,6 hPa 0,0 l/m 11,6 km/h (2 Bft) O-NO 72 0 min 0,000 mm 0,0 UV-I 0 W/m -3,3 C -4,5 C 27,4 km/h (4 Bft)
14.03.2016 06:30 0,2 C 77 % 1033,7 hPa 0,0 l/m 4,2 km/h (1 Bft) NO 55 0 min 0,000 mm 0,0 UV-I 0 W/m -3,3 C 0,2 C 12,9 km/h (3 Bft)
14.03.2016 06:35 0,2 C 77 % 1033,8 hPa 0,0 l/m 5,3 km/h (1 Bft) O-NO 69 0 min 0,000 mm 0,0 UV-I 0 W/m -3,3 C 0,2 C 16,1 km/h (3 Bft)
14.03.2016 06:40 0,2 C 77 % 1033,8 hPa 0,0 l/m 6,8 km/h (2 Bft) NO 40 0 min 0,000 mm 0,0 UV-I 0 W/m -3,3 C -0,2 C 17,7 km/h (3 Bft)
14.03.2016 06:45 0,2 C 77 % 1033,8 hPa 0,0 l/m 10,9 km/h (2 Bft) O 82 0 min 0,000 mm 0,0 UV-I 0 W/m -3,3 C -3,9 C 19,3 km/h (3 Bft)
14.03.2016 06:50 0,2 C 77 % 1033,7 hPa 0,0 l/m 8,7 km/h (2 Bft) NO 51 0 min 0,000 mm 0,0 UV-I 3 W/m -3,3 C -2,1 C 14,5 km/h (3 Bft)
14.03.2016 06:55 0,1 C 77 % 1033,7 hPa 0,0 l/m 6,5 km/h (2 Bft) NO 54 0 min 0,000 mm 0,0 UV-I 7 W/m -3,4 C 0,0 C 17,7 km/h (3 Bft)
14.03.2016 07:00 0,1 C 77 % 1033,7 hPa 0,0 l/m 6,9 km/h (2 Bft) O-NO 57 0 min 0,000 mm 0,0 UV-I 11 W/m -3,4 C -0,4 C 14,5 km/h (3 Bft)
14.03.2016 07:05 0,1 C 77 % 1033,8 hPa 0,0 l/m 8,4 km/h (2 Bft) O-NO 57 0 min 0,025 mm 0,0 UV-I 16 W/m -3,4 C -1,9 C 19,3 km/h (3 Bft)
14.03.2016 07:10 0,1 C 77 % 1033,8 hPa 0,0 l/m 7,0 km/h (2 Bft) O-NO 69 0 min 0,000 mm 0,0 UV-I 22 W/m -3,4 C -0,5 C 19,3 km/h (3 Bft)
14.03.2016 07:15 0,2 C 77 % 1033,9 hPa 0,0 l/m 7,2 km/h (2 Bft) NO 38 0 min 0,000 mm 0,0 UV-I 34 W/m -3,3 C -0,6 C 17,7 km/h (3 Bft)
14.03.2016 07:20 0,2 C 77 % 1033,9 hPa 0,0 l/m 4,1 km/h (1 Bft) N-NO 23 0 min 0,000 mm 0,0 UV-I 47 W/m -3,3 C 0,2 C 12,9 km/h (3 Bft)
14.03.2016 07:25 0,3 C 76 % 1033,9 hPa 0,0 l/m 4,3 km/h (1 Bft) O-NO 67 5 min 0,000 mm 0,0 UV-I 59 W/m -3,4 C 0,3 C 16,1 km/h (3 Bft)
14.03.2016 07:30 0,4 C 76 % 1033,9 hPa 0,0 l/m 2,7 km/h (1 Bft) O-NO 59 0 min 0,000 mm 0,0 UV-I 61 W/m -3,3 C 0,4 C 12,9 km/h (3 Bft)
14.03.2016 07:35 0,4 C 75 % 1034,0 hPa 0,0 l/m 9,2 km/h (2 Bft) O-NO 57 0 min 0,000 mm 0,0 UV-I 67 W/m -3,5 C -2,3 C 17,7 km/h (3 Bft)
14.03.2016 07:40 0,5 C 75 % 1034,0 hPa 0,0 l/m 5,6 km/h (1 Bft) O-NO 59 5 min 0,000 mm 0,0 UV-I 80 W/m -3,4 C 0,5 C 12,9 km/h (3 Bft)
14.03.2016 07:45 0,6 C 75 % 1034,0 hPa 0,0 l/m 8,6 km/h (2 Bft) O-NO 61 5 min 0,000 mm 0,0 UV-I 94 W/m -3,3 C -1,6 C 17,7 km/h (3 Bft)
14.03.2016 07:50 0,8 C 75 % 1034,0 hPa 0,0 l/m 8,4 km/h (2 Bft) O-NO 64 5 min 0,000 mm 0,0 UV-I 114 W/m -3,1 C -1,2 C 20,9 km/h (4 Bft)
14.03.2016 07:55 0,9 C 74 % 1033,9 hPa 0,0 l/m 10,2 km/h (2 Bft) NO 47 5 min 0,000 mm 0,0 UV-I 104 W/m -3,2 C -2,6 C 19,3 km/h (3 Bft)
14.03.2016 08:00 0,8 C 75 % 1034,1 hPa 0,0 l/m 11,0 km/h (2 Bft) O 89 5 min 0,000 mm 0,0 UV-I 111 W/m -3,1 C -3,3 C 22,5 km/h (4 Bft)
14.03.2016 08:05 0,9 C 75 % 1034,0 hPa 0,0 l/m 3,9 km/h (1 Bft) O-NO 76 0 min 0,026 mm 0,0 UV-I 102 W/m -3,0 C 0,9 C 11,3 km/h (2 Bft)
14.03.2016 08:10 1,0 C 75 % 1034,0 hPa 0,0 l/m 4,4 km/h (1 Bft) NO 34 0 min 0,000 mm 0,5 UV-I 117 W/m -2,9 C 1,0 C 17,7 km/h (3 Bft)
14.03.2016 08:15 1,1 C 74 % 1034,0 hPa 0,0 l/m 11,5 km/h (2 Bft) NO 35 5 min 0,000 mm 0,5 UV-I 147 W/m -3,0 C -3,4 C 25,7 km/h (4 Bft)
14.03.2016 08:20 1,3 C 74 % 1034,0 hPa 0,0 l/m 9,9 km/h (2 Bft) NO 53 5 min 0,000 mm 0,5 UV-I 159 W/m -2,8 C -1,9 C 19,3 km/h (3 Bft)
14.03.2016 08:25 1,4 C 73 % 1034,0 hPa 0,0 l/m 10,6 km/h (2 Bft) N-NO 31 5 min 0,000 mm 0,6 UV-I 173 W/m -2,9 C -2,4 C 20,9 km/h (4 Bft)
14.03.2016 08:30 1,6 C 72 % 1034,0 hPa 0,0 l/m 10,4 km/h (2 Bft) O-NO 57 5 min 0,000 mm 0,6 UV-I 167 W/m -2,9 C -2,0 C 27,4 km/h (4 Bft)
14.03.2016 08:35 1,7 C 72 % 1033,9 hPa 0,0 l/m 11,4 km/h (2 Bft) O-NO 68 5 min 0,000 mm 0,7 UV-I 227 W/m -2,8 C -2,6 C 24,1 km/h (4 Bft)
14.03.2016 08:40 1,8 C 71 % 1033,9 hPa 0,0 l/m 11,4 km/h (2 Bft) O 84 5 min 0,000 mm 0,7 UV-I 224 W/m -2,9 C -2,5 C 22,5 km/h (4 Bft)
14.03.2016 08:45 2,1 C 71 % 1033,9 hPa 0,0 l/m 13,2 km/h (3 Bft) O-NO 66 5 min 0,000 mm 0,8 UV-I 246 W/m -2,6 C -3,4 C 25,7 km/h (4 Bft)
14.03.2016 08:50 2,2 C 71 % 1034,0 hPa 0,0 l/m 8,3 km/h (2 Bft) N 5 5 min 0,000 mm 0,8 UV-I 261 W/m -2,5 C 0,4 C 20,9 km/h (4 Bft)
14.03.2016 08:55 2,4 C 69 % 1033,9 hPa 0,0 l/m 12,0 km/h (2 Bft) NO 46 5 min 0,000 mm 0,9 UV-I 257 W/m -2,7 C -2,2 C 20,9 km/h (4 Bft)
14.03.2016 09:00 2,6 C 70 % 1033,9 hPa 0,0 l/m 9,0 km/h (2 Bft) NO 53 5 min 0,000 mm 0,9 UV-I 268 W/m -2,3 C 0,2 C 22,5 km/h (4 Bft)
14.03.2016 09:05 2,5 C 69 % 1033,8 hPa 0,0 l/m 12,6 km/h (3 Bft) O-NO 59 5 min 0,101 mm 0,9 UV-I 283 W/m -2,6 C -2,5 C 20,9 km/h (4 Bft)
14.03.2016 09:10 2,4 C 69 % 1034,0 hPa 0,0 l/m 10,8 km/h (2 Bft) O-NO 61 0 min 0,000 mm 1,0 UV-I 199 W/m -2,7 C -1,4 C 22,5 km/h (4 Bft)
14.03.2016 09:15 2,3 C 68 % 1034,0 hPa 0,0 l/m 13,2 km/h (3 Bft) NO 53 5 min 0,000 mm 1,1 UV-I 277 W/m -3,0 C -3,1 C 24,1 km/h (4 Bft)
14.03.2016 09:20 2,3 C 68 % 1033,9 hPa 0,0 l/m 14,9 km/h (3 Bft) NO 46 5 min 0,000 mm 1,1 UV-I 324 W/m -3,0 C -4,1 C 27,4 km/h (4 Bft)
14.03.2016 09:25 2,6 C 68 % 1034,0 hPa 0,0 l/m 9,3 km/h (2 Bft) NO 34 5 min 0,000 mm 1,2 UV-I 317 W/m -2,7 C -0,0 C 22,5 km/h (4 Bft)
14.03.2016 09:30 3,1 C 68 % 1033,9 hPa 0,0 l/m 9,5 km/h (2 Bft) O-NO 58 5 min 0,000 mm 1,3 UV-I 341 W/m -2,2 C 0,4 C 24,1 km/h (4 Bft)
14.03.2016 09:35 3,5 C 65 % 1033,9 hPa 0,0 l/m 9,5 km/h (2 Bft) NO 51 5 min 0,000 mm 1,3 UV-I 393 W/m -2,4 C 0,8 C 20,9 km/h (4 Bft)
14.03.2016 09:40 3,9 C 64 % 1033,8 hPa 0,0 l/m 5,8 km/h (2 Bft) NO 55 5 min 0,000 mm 1,4 UV-I 402 W/m -2,3 C 3,9 C 17,7 km/h (3 Bft)
14.03.2016 09:45 3,8 C 65 % 1033,9 hPa 0,0 l/m 8,2 km/h (2 Bft) NO 53 5 min 0,000 mm 1,5 UV-I 402 W/m -2,2 C 2,2 C 20,9 km/h (4 Bft)
14.03.2016 09:50 3,8 C 65 % 1033,8 hPa 0,0 l/m 7,5 km/h (2 Bft) S 189 5 min 0,000 mm 1,5 UV-I 420 W/m -2,2 C 2,8 C 22,5 km/h (4 Bft)
14.03.2016 09:55 3,3 C 66 % 1033,8 hPa 0,0 l/m 10,8 km/h (2 Bft) S-SO 150 5 min 0,000 mm 1,6 UV-I 430 W/m -2,4 C -0,4 C 20,9 km/h (4 Bft)
14.03.2016 10:00 3,0 C 65 % 1033,7 hPa 0,0 l/m 9,5 km/h (2 Bft) O-SO 106 5 min 0,000 mm 1,6 UV-I 436 W/m -2,9 C 0,2 C 24,1 km/h (4 Bft)
14.03.2016 10:05 3,2 C 65 % 1033,7 hPa 0,0 l/m 14,2 km/h (3 Bft) N-NO 31 5 min 0,153 mm 1,7 UV-I 447 W/m -2,7 C -2,7 C 30,6 km/h (5 Bft)
14.03.2016 10:10 3,0 C 66 % 1033,7 hPa 0,0 l/m 12,4 km/h (3 Bft) NO 56 5 min 0,000 mm 1,8 UV-I 442 W/m -2,7 C -1,8 C 20,9 km/h (4 Bft)
14.03.2016 10:15 4,1 C 63 % 1033,8 hPa 0,0 l/m 11,8 km/h (2 Bft) O-SO 118 5 min 0,000 mm 1,9 UV-I 461 W/m -2,3 C -0,2 C 22,5 km/h (4 Bft)
14.03.2016 10:20 4,3 C 63 % 1033,7 hPa 0,0 l/m 8,9 km/h (2 Bft) O 88 5 min 0,000 mm 1,9 UV-I 462 W/m -2,1 C 2,1 C 24,1 km/h (4 Bft)
14.03.2016 10:25 4,2 C 62 % 1033,6 hPa 0,0 l/m 13,2 km/h (3 Bft) O-NO 61 5 min 0,000 mm 2,0 UV-I 470 W/m -2,4 C -0,9 C 22,5 km/h (4 Bft)
14.03.2016 10:30 3,6 C 63 % 1033,6 hPa 0,0 l/m 12,2 km/h (2 Bft) O 96 5 min 0,000 mm 2,1 UV-I 499 W/m -2,8 C -1,0 C 20,9 km/h (4 Bft)
14.03.2016 10:35 3,8 C 64 % 1033,7 hPa 0,0 l/m 14,4 km/h (3 Bft) NO 56 5 min 0,000 mm 2,1 UV-I 483 W/m -2,4 C -2,1 C 33,8 km/h (5 Bft)
14.03.2016 10:40 4,2 C 62 % 1033,7 hPa 0,0 l/m 12,4 km/h (3 Bft) O-NO 71 5 min 0,000 mm 2,2 UV-I 501 W/m -2,4 C -0,4 C 22,5 km/h (4 Bft)
14.03.2016 10:45 4,4 C 61 % 1033,5 hPa 0,0 l/m 13,1 km/h (3 Bft) O-NO 62 5 min 0,000 mm 2,2 UV-I 499 W/m -2,4 C -0,6 C 27,4 km/h (4 Bft)
14.03.2016 10:50 4,3 C 62 % 1033,5 hPa 0,0 l/m 10,0 km/h (2 Bft) SW 228 5 min 0,000 mm 2,2 UV-I 469 W/m -2,3 C 1,3 C 20,9 km/h (4 Bft)
14.03.2016 10:55 4,7 C 60 % 1033,4 hPa 0,0 l/m 10,6 km/h (2 Bft) NO 51 5 min 0,000 mm 2,4 UV-I 536 W/m -2,4 C 1,3 C 19,3 km/h (3 Bft)
14.03.2016 11:00 4,7 C 60 % 1033,5 hPa 0,0 l/m 13,7 km/h (3 Bft) NO 45 5 min 0,000 mm 2,4 UV-I 531 W/m -2,4 C -0,6 C 24,1 km/h (4 Bft)
14.03.2016 11:05 4,8 C 60 % 1033,4 hPa 0,0 l/m 10,6 km/h (2 Bft) O-NO 69 5 min 0,228 mm 2,4 UV-I 512 W/m -2,3 C 1,4 C 17,7 km/h (3 Bft)
14.03.2016 11:10 4,6 C 61 % 1033,3 hPa 0,0 l/m 11,9 km/h (2 Bft) O-NO 66 5 min 0,000 mm 2,4 UV-I 518 W/m -2,3 C 0,4 C 17,7 km/h (3 Bft)
14.03.2016 11:15 4,4 C 61 % 1033,3 hPa 0,0 l/m 11,2 km/h (2 Bft) O-NO 57 5 min 0,000 mm 2,5 UV-I 504 W/m -2,4 C 0,6 C 16,1 km/h (3 Bft)
14.03.2016 11:20 5,2 C 60 % 1033,3 hPa 0,0 l/m 8,1 km/h (2 Bft) O 82 5 min 0,000 mm 2,6 UV-I 553 W/m -1,9 C 3,7 C 16,1 km/h (3 Bft)
14.03.2016 11:25 5,1 C 60 % 1033,3 hPa 0,0 l/m 5,4 km/h (1 Bft) O-NO 66 5 min 0,000 mm 2,6 UV-I 552 W/m -2,0 C 5,1 C 16,1 km/h (3 Bft)
14.03.2016 11:30 6,1 C 58 % 1033,2 hPa 0,0 l/m 6,5 km/h (2 Bft) NO 44 5 min 0,000 mm 2,7 UV-I 559 W/m -1,5 C 6,0 C 24,1 km/h (4 Bft)
14.03.2016 11:35 6,4 C 57 % 1033,2 hPa 0,0 l/m 5,5 km/h (1 Bft) N-NW 338 5 min 0,000 mm 2,6 UV-I 523 W/m -1,5 C 6,4 C 20,9 km/h (4 Bft)
14.03.2016 11:40 7,0 C 53 % 1033,1 hPa 0,0 l/m 4,9 km/h (1 Bft) NO 56 5 min 0,000 mm 2,8 UV-I 576 W/m -1,9 C 7,0 C 20,9 km/h (4 Bft)
14.03.2016 11:45 6,8 C 52 % 1032,9 hPa 0,0 l/m 12,2 km/h (2 Bft) NO 47 5 min 0,000 mm 2,7 UV-I 544 W/m -2,4 C 2,7 C 20,9 km/h (4 Bft)
14.03.2016 11:50 6,1 C 54 % 1032,9 hPa 0,0 l/m 11,3 km/h (2 Bft) O-NO 65 5 min 0,000 mm 2,5 UV-I 444 W/m -2,5 C 2,4 C 24,1 km/h (4 Bft)
14.03.2016 11:55 5,9 C 54 % 1032,9 hPa 0,0 l/m 14,3 km/h (3 Bft) NO 43 5 min 0,000 mm 2,6 UV-I 461 W/m -2,7 C 0,5 C 22,5 km/h (4 Bft)
14.03.2016 12:00 5,4 C 55 % 1032,8 hPa 0,0 l/m 14,3 km/h (3 Bft) NO 52 5 min 0,000 mm 2,5 UV-I 425 W/m -2,9 C -0,1 C 22,5 km/h (4 Bft)
14.03.2016 12:05 5,7 C 55 % 1032,8 hPa 0,0 l/m 12,5 km/h (3 Bft) N 9 5 min 0,254 mm 2,6 UV-I 423 W/m -2,6 C 1,3 C 20,9 km/h (4 Bft)
14.03.2016 12:10 6,3 C 56 % 1032,8 hPa 0,0 l/m 11,4 km/h (2 Bft) O-NO 72 5 min 0,000 mm 2,9 UV-I 527 W/m -1,8 C 2,6 C 17,7 km/h (3 Bft)
14.03.2016 12:15 6,4 C 56 % 1032,7 hPa 0,0 l/m 7,7 km/h (2 Bft) NO 55 5 min 0,000 mm 2,9 UV-I 562 W/m -1,7 C 5,3 C 14,5 km/h (3 Bft)
14.03.2016 12:20 7,2 C 54 % 1032,6 hPa 0,0 l/m 1,8 km/h (1 Bft) NO 55 5 min 0,000 mm 3,0 UV-I 591 W/m -1,5 C 7,2 C 11,3 km/h (2 Bft)
14.03.2016 12:25 7,2 C 54 % 1032,6 hPa 0,0 l/m 6,1 km/h (2 Bft) O-NO 73 5 min 0,000 mm 3,0 UV-I 591 W/m -1,5 C 7,2 C 16,1 km/h (3 Bft)
14.03.2016 12:30 8,1 C 50 % 1032,5 hPa 0,0 l/m 6,0 km/h (2 Bft) O 79 5 min 0,000 mm 3,0 UV-I 601 W/m -1,7 C 8,1 C 14,5 km/h (3 Bft)
14.03.2016 12:35 7,6 C 53 % 1032,5 hPa 0,0 l/m 6,6 km/h (2 Bft) O 81 5 min 0,000 mm 3,1 UV-I 637 W/m -1,4 C 7,5 C 17,7 km/h (3 Bft)
14.03.2016 12:40 6,9 C 55 % 1032,4 hPa 0,0 l/m 9,1 km/h (2 Bft) O-SO 112 5 min 0,000 mm 3,1 UV-I 635 W/m -1,5 C 4,8 C 22,5 km/h (4 Bft)
14.03.2016 12:45 7,6 C 53 % 1032,2 hPa 0,0 l/m 1,6 km/h (1 Bft) N 350 5 min 0,000 mm 3,0 UV-I 625 W/m -1,4 C 7,6 C 12,9 km/h (3 Bft)
14.03.2016 12:50 9,6 C 51 % 1032,2 hPa 0,0 l/m 1,1 km/h (1 Bft) N-NO 24 5 min 0,000 mm 3,0 UV-I 613 W/m -0,0 C 9,6 C 14,5 km/h (3 Bft)
14.03.2016 12:55 9,3 C 50 % 1032,1 hPa 0,0 l/m 1,6 km/h (1 Bft) N-NO 30 5 min 0,000 mm 3,0 UV-I 617 W/m -0,6 C 9,3 C 12,9 km/h (3 Bft)
14.03.2016 13:00 9,8 C 48 % 1032,1 hPa 0,0 l/m 1,3 km/h (1 Bft) O-NO 76 5 min 0,000 mm 3,0 UV-I 615 W/m -0,7 C 9,8 C 12,9 km/h (3 Bft)
14.03.2016 13:05 9,1 C 49 % 1032,0 hPa 0,0 l/m 9,5 km/h (2 Bft) O-NO 72 5 min 0,280 mm 3,0 UV-I 635 W/m -1,0 C 6,9 C 19,3 km/h (3 Bft)
14.03.2016 13:10 9,7 C 49 % 1031,9 hPa 0,0 l/m 1,7 km/h (1 Bft) NO 53 5 min 0,000 mm 3,0 UV-I 614 W/m -0,5 C 9,7 C 11,3 km/h (2 Bft)
14.03.2016 13:15 9,9 C 47 % 1031,9 hPa 0,0 l/m 4,7 km/h (1 Bft) N-NO 18 5 min 0,000 mm 3,0 UV-I 644 W/m -0,9 C 9,9 C 12,9 km/h (3 Bft)
14.03.2016 13:20 10,9 C 46 % 1031,9 hPa 0,0 l/m 1,1 km/h (1 Bft) NO 44 5 min 0,000 mm 3,0 UV-I 661 W/m -0,3 C 10,9 C 8,0 km/h (2 Bft)
14.03.2016 13:25 10,7 C 45 % 1031,8 hPa 0,0 l/m 2,2 km/h (1 Bft) O-SO 102 5 min 0,000 mm 2,9 UV-I 635 W/m -0,7 C 10,7 C 11,3 km/h (2 Bft)
14.03.2016 13:30 10,3 C 46 % 1031,7 hPa 0,0 l/m 0,2 km/h (0 Bft) SW 236 5 min 0,000 mm 2,9 UV-I 627 W/m -0,8 C 10,3 C 1,6 km/h (1 Bft)
14.03.2016 13:35 10,1 C 44 % 1031,7 hPa 0,0 l/m 3,4 km/h (1 Bft) O 81 5 min 0,000 mm 2,8 UV-I 614 W/m -1,6 C 10,1 C 14,5 km/h (3 Bft)
14.03.2016 13:40 10,2 C 45 % 1031,5 hPa 0,0 l/m 3,7 km/h (1 Bft) N-NW 338 5 min 0,000 mm 2,8 UV-I 614 W/m -1,2 C 10,2 C 20,9 km/h (4 Bft)
14.03.2016 13:45 9,4 C 43 % 1031,6 hPa 0,0 l/m 10,5 km/h (2 Bft) NO 53 5 min 0,000 mm 2,8 UV-I 610 W/m -2,5 C 6,6 C 22,5 km/h (4 Bft)
14.03.2016 13:50 8,9 C 47 % 1031,4 hPa 0,0 l/m 6,0 km/h (2 Bft) O-SO 109 5 min 0,000 mm 2,7 UV-I 600 W/m -1,8 C 8,9 C 17,7 km/h (3 Bft)
14.03.2016 13:55 9,0 C 46 % 1031,3 hPa 0,0 l/m 7,9 km/h (2 Bft) O-NO 57 5 min 0,000 mm 2,7 UV-I 595 W/m -2,0 C 7,9 C 19,3 km/h (3 Bft)
14.03.2016 14:00 10,4 C 44 % 1031,3 hPa 0,0 l/m 1,2 km/h (1 Bft) NO 53 5 min 0,000 mm 2,6 UV-I 586 W/m -1,3 C 10,4 C 14,5 km/h (3 Bft)
14.03.2016 14:05 9,4 C 45 % 1031,1 hPa 0,0 l/m 9,9 km/h (2 Bft) O-NO 59 5 min 0,305 mm 2,5 UV-I 588 W/m -1,9 C 7,0 C 20,9 km/h (4 Bft)
14.03.2016 14:10 9,8 C 44 % 1031,0 hPa 0,0 l/m 8,2 km/h (2 Bft) NO 42 5 min 0,000 mm 2,5 UV-I 588 W/m -1,9 C 8,5 C 22,5 km/h (4 Bft)
14.03.2016 14:15 10,5 C 42 % 1030,9 hPa 0,0 l/m 3,3 km/h (1 Bft) NO 38 5 min 0,000 mm 2,4 UV-I 569 W/m -1,9 C 10,5 C 16,1 km/h (3 Bft)
14.03.2016 14:20 11,1 C 42 % 1030,9 hPa 0,0 l/m 0,2 km/h (0 Bft) O-NO 64 5 min 0,000 mm 2,3 UV-I 560 W/m -1,3 C 11,1 C 1,6 km/h (1 Bft)
14.03.2016 14:25 10,4 C 41 % 1030,7 hPa 0,0 l/m 8,4 km/h (2 Bft) O-NO 57 5 min 0,000 mm 2,3 UV-I 561 W/m -2,3 C 9,0 C 17,7 km/h (3 Bft)
14.03.2016 14:30 10,6 C 42 % 1030,8 hPa 0,0 l/m 2,9 km/h (1 Bft) O 83 5 min 0,000 mm 2,3 UV-I 570 W/m -1,8 C 10,6 C 16,1 km/h (3 Bft)
14.03.2016 14:35 9,9 C 42 % 1030,8 hPa 0,0 l/m 9,7 km/h (2 Bft) O-NO 75 5 min 0,000 mm 2,2 UV-I 563 W/m -2,4 C 7,7 C 20,9 km/h (4 Bft)
14.03.2016 14:40 9,6 C 43 % 1030,8 hPa 0,0 l/m 12,0 km/h (2 Bft) O 89 5 min 0,000 mm 2,1 UV-I 556 W/m -2,4 C 6,1 C 25,7 km/h (4 Bft)
14.03.2016 14:45 9,7 C 43 % 1030,7 hPa 0,0 l/m 7,2 km/h (2 Bft) O-NO 61 5 min 0,000 mm 2,0 UV-I 537 W/m -2,3 C 9,1 C 17,7 km/h (3 Bft)
14.03.2016 14:50 9,8 C 42 % 1030,6 hPa 0,0 l/m 7,6 km/h (2 Bft) O-NO 61 5 min 0,000 mm 1,9 UV-I 484 W/m -2,5 C 8,9 C 19,3 km/h (3 Bft)
14.03.2016 14:55 10,3 C 44 % 1030,6 hPa 0,0 l/m 3,6 km/h (1 Bft) O-NO 59 5 min 0,000 mm 1,8 UV-I 470 W/m -1,4 C 10,3 C 17,7 km/h (3 Bft)
14.03.2016 15:00 10,7 C 43 % 1030,7 hPa 0,0 l/m 2,6 km/h (1 Bft) NO 46 5 min 0,000 mm 1,7 UV-I 378 W/m -1,4 C 10,7 C 16,1 km/h (3 Bft)
14.03.2016 15:05 10,7 C 40 % 1030,6 hPa 0,0 l/m 4,9 km/h (1 Bft) O-NO 65 5 min 0,279 mm 1,7 UV-I 384 W/m -2,3 C 10,7 C 19,3 km/h (3 Bft)
14.03.2016 15:10 10,2 C 43 % 1030,6 hPa 0,0 l/m 7,0 km/h (2 Bft) N 5 5 min 0,000 mm 1,7 UV-I 469 W/m -1,8 C 9,8 C 16,1 km/h (3 Bft)
14.03.2016 15:15 10,5 C 41 % 1030,6 hPa 0,0 l/m 5,4 km/h (1 Bft) NO 51 5 min 0,000 mm 1,6 UV-I 467 W/m -2,2 C 10,5 C 16,1 km/h (3 Bft)
14.03.2016 15:20 10,0 C 43 % 1030,5 hPa 0,0 l/m 7,4 km/h (2 Bft) NO 44 5 min 0,000 mm 1,6 UV-I 461 W/m -2,0 C 9,3 C 20,9 km/h (4 Bft)
14.03.2016 15:25 10,7 C 41 % 1030,5 hPa 0,0 l/m 2,2 km/h (1 Bft) NO 45 5 min 0,000 mm 1,5 UV-I 447 W/m -2,0 C 10,7 C 12,9 km/h (3 Bft)
14.03.2016 15:30 10,5 C 39 % 1030,5 hPa 0,0 l/m 5,1 km/h (1 Bft) NO 38 5 min 0,000 mm 1,4 UV-I 440 W/m -2,9 C 10,5 C 20,9 km/h (4 Bft)
14.03.2016 15:35 10,2 C 41 % 1030,3 hPa 0,0 l/m 2,4 km/h (1 Bft) O-NO 63 5 min 0,000 mm 1,4 UV-I 435 W/m -2,5 C 10,2 C 14,5 km/h (3 Bft)
14.03.2016 15:40 10,4 C 41 % 1030,4 hPa 0,0 l/m 4,2 km/h (1 Bft) N 5 5 min 0,000 mm 1,3 UV-I 427 W/m -2,3 C 10,4 C 14,5 km/h (3 Bft)
14.03.2016 15:45 10,6 C 41 % 1030,3 hPa 0,0 l/m 4,6 km/h (1 Bft) N-NO 23 5 min 0,000 mm 1,3 UV-I 411 W/m -2,1 C 10,6 C 16,1 km/h (3 Bft)
14.03.2016 15:50 11,4 C 40 % 1030,3 hPa 0,0 l/m 1,1 km/h (1 Bft) NO 42 5 min 0,000 mm 1,2 UV-I 396 W/m -1,7 C 11,4 C 11,3 km/h (2 Bft)
14.03.2016 15:55 10,3 C 40 % 1030,3 hPa 0,0 l/m 8,7 km/h (2 Bft) N-NO 28 5 min 0,000 mm 1,1 UV-I 388 W/m -2,7 C 8,7 C 22,5 km/h (4 Bft)
14.03.2016 16:00 10,7 C 41 % 1030,2 hPa 0,0 l/m 4,0 km/h (1 Bft) N-NO 28 5 min 0,000 mm 1,1 UV-I 372 W/m -2,0 C 10,7 C 12,9 km/h (3 Bft)
14.03.2016 16:05 10,8 C 39 % 1030,1 hPa 0,0 l/m 3,7 km/h (1 Bft) N-NO 26 5 min 0,229 mm 1,0 UV-I 354 W/m -2,6 C 10,8 C 20,9 km/h (4 Bft)
14.03.2016 16:10 11,2 C 39 % 1030,1 hPa 0,0 l/m 3,5 km/h (1 Bft) N-NW 348 5 min 0,000 mm 1,0 UV-I 341 W/m -2,2 C 11,2 C 9,7 km/h (2 Bft)
14.03.2016 16:15 11,4 C 38 % 1030,1 hPa 0,0 l/m 2,6 km/h (1 Bft) N 360 5 min 0,000 mm 0,9 UV-I 328 W/m -2,4 C 11,4 C 12,9 km/h (3 Bft)
14.03.2016 16:20 11,2 C 38 % 1030,0 hPa 0,0 l/m 1,6 km/h (1 Bft) NO 40 5 min 0,000 mm 0,9 UV-I 323 W/m -2,6 C 11,2 C 11,3 km/h (2 Bft)
14.03.2016 16:25 10,8 C 37 % 1030,1 hPa 0,0 l/m 4,0 km/h (1 Bft) O-NO 67 5 min 0,000 mm 0,8 UV-I 312 W/m -3,3 C 10,8 C 17,7 km/h (3 Bft)
14.03.2016 16:30 10,1 C 38 % 1030,0 hPa 0,0 l/m 8,3 km/h (2 Bft) N-NO 22 5 min 0,000 mm 0,8 UV-I 299 W/m -3,6 C 8,8 C 19,3 km/h (3 Bft)
14.03.2016 16:35 10,6 C 36 % 1030,1 hPa 0,0 l/m 3,3 km/h (1 Bft) O-NO 62 5 min 0,000 mm 0,7 UV-I 296 W/m -3,8 C 10,6 C 17,7 km/h (3 Bft)
14.03.2016 16:40 10,9 C 37 % 1030,0 hPa 0,0 l/m 3,3 km/h (1 Bft) O-NO 78 5 min 0,000 mm 0,7 UV-I 276 W/m -3,2 C 10,9 C 14,5 km/h (3 Bft)
14.03.2016 16:45 10,3 C 37 % 1030,0 hPa 0,0 l/m 2,7 km/h (1 Bft) NO 40 5 min 0,000 mm 0,6 UV-I 261 W/m -3,7 C 10,3 C 16,1 km/h (3 Bft)
14.03.2016 16:50 10,2 C 36 % 1029,9 hPa 0,0 l/m 6,6 km/h (2 Bft) O-NO 63 5 min 0,000 mm 0,6 UV-I 244 W/m -4,2 C 10,1 C 16,1 km/h (3 Bft)
14.03.2016 16:55 10,1 C 37 % 1029,9 hPa 0,0 l/m 2,0 km/h (1 Bft) NO 40 5 min 0,000 mm 0,5 UV-I 232 W/m -3,9 C 10,1 C 11,3 km/h (2 Bft)
14.03.2016 17:00 10,1 C 37 % 1029,9 hPa 0,0 l/m 4,5 km/h (1 Bft) N-NO 14 5 min 0,000 mm 0,5 UV-I 220 W/m -3,9 C 10,1 C 16,1 km/h (3 Bft)
14.03.2016 17:05 9,9 C 37 % 1029,9 hPa 0,0 l/m 4,2 km/h (1 Bft) NO 48 5 min 0,177 mm 0,5 UV-I 204 W/m -4,1 C 9,9 C 17,7 km/h (3 Bft)
14.03.2016 17:10 9,3 C 38 % 1029,8 hPa 0,0 l/m 4,9 km/h (1 Bft) N-NO 32 5 min 0,000 mm 0,1 UV-I 190 W/m -4,3 C 9,3 C 17,7 km/h (3 Bft)
14.03.2016 17:15 9,4 C 37 % 1029,7 hPa 0,0 l/m 6,6 km/h (2 Bft) NO 40 5 min 0,000 mm 0,0 UV-I 174 W/m -4,5 C 9,3 C 17,7 km/h (3 Bft)
14.03.2016 17:20 9,5 C 38 % 1029,8 hPa 0,0 l/m 4,8 km/h (1 Bft) NO 56 5 min 0,000 mm 0,0 UV-I 158 W/m -4,1 C 9,5 C 14,5 km/h (3 Bft)
14.03.2016 17:25 9,3 C 38 % 1029,8 hPa 0,0 l/m 4,5 km/h (1 Bft) O-NO 68 5 min 0,000 mm 0,0 UV-I 142 W/m -4,3 C 9,3 C 16,1 km/h (3 Bft)
14.03.2016 17:30 9,3 C 38 % 1029,8 hPa 0,0 l/m 2,2 km/h (1 Bft) N-NO 15 5 min 0,000 mm 0,0 UV-I 125 W/m -4,3 C 9,3 C 16,1 km/h (3 Bft)
14.03.2016 17:35 9,3 C 38 % 1029,7 hPa 0,0 l/m 2,8 km/h (1 Bft) O-NO 73 5 min 0,000 mm 0,0 UV-I 109 W/m -4,3 C 9,3 C 16,1 km/h (3 Bft)
14.03.2016 17:40 9,3 C 40 % 1029,7 hPa 0,0 l/m 1,2 km/h (1 Bft) NO 34 5 min 0,000 mm 0,0 UV-I 95 W/m -3,6 C 9,3 C 11,3 km/h (2 Bft)
14.03.2016 17:45 9,2 C 38 % 1029,7 hPa 0,0 l/m 3,6 km/h (1 Bft) O-NO 57 5 min 0,000 mm 0,0 UV-I 81 W/m -4,4 C 9,2 C 17,7 km/h (3 Bft)
14.03.2016 17:50 8,7 C 40 % 1029,7 hPa 0,0 l/m 3,4 km/h (1 Bft) O-NO 60 5 min 0,000 mm 0,0 UV-I 69 W/m -4,1 C 8,7 C 14,5 km/h (3 Bft)
14.03.2016 17:55 8,4 C 40 % 1029,8 hPa 0,0 l/m 2,9 km/h (1 Bft) O-NO 65 5 min 0,000 mm 0,0 UV-I 59 W/m -4,4 C 8,4 C 20,9 km/h (4 Bft)
14.03.2016 18:00 8,2 C 40 % 1029,9 hPa 0,0 l/m 3,2 km/h (1 Bft) NO 44 5 min 0,000 mm 0,0 UV-I 48 W/m -4,6 C 8,2 C 16,1 km/h (3 Bft)
14.03.2016 18:05 8,1 C 41 % 1029,9 hPa 0,0 l/m 0,8 km/h (0 Bft) O-NO 68 5 min 0,077 mm 0,0 UV-I 39 W/m -4,3 C 8,1 C 6,4 km/h (2 Bft)
14.03.2016 18:10 8,1 C 41 % 1029,9 hPa 0,0 l/m 0,1 km/h (0 Bft) O 94 5 min 0,000 mm 0,0 UV-I 28 W/m -4,3 C 8,1 C 1,6 km/h (1 Bft)
14.03.2016 18:15 7,9 C 42 % 1029,9 hPa 0,0 l/m 0,0 km/h (0 Bft) NO 50 5 min 0,000 mm 0,0 UV-I 20 W/m -4,2 C 7,9 C 1,6 km/h (1 Bft)
14.03.2016 18:20 7,7 C 43 % 1029,9 hPa 0,0 l/m 0,6 km/h (0 Bft) N 5 0 min 0,000 mm 0,0 UV-I 16 W/m -4,1 C 7,7 C 6,4 km/h (2 Bft)
14.03.2016 18:25 7,5 C 45 % 1029,9 hPa 0,0 l/m 0,0 km/h (0 Bft) N-NO 20 0 min 0,000 mm 0,0 UV-I 12 W/m -3,6 C 7,5 C 0,0 km/h (0 Bft)
14.03.2016 18:30 7,3 C 46 % 1029,9 hPa 0,0 l/m 0,0 km/h (0 Bft) N-NO 28 0 min 0,000 mm 0,0 UV-I 8 W/m -3,5 C 7,3 C 0,0 km/h (0 Bft)
14.03.2016 18:35 7,1 C 47 % 1029,8 hPa 0,0 l/m 0,0 km/h (0 Bft) NO 36 0 min 0,000 mm 0,0 UV-I 5 W/m -3,4 C 7,1 C 1,6 km/h (1 Bft)
14.03.2016 18:40 7,0 C 48 % 1029,8 hPa 0,0 l/m 0,0 km/h (0 Bft) NO 36 0 min 0,000 mm 0,0 UV-I 2 W/m -3,2 C 7,0 C 0,0 km/h (0 Bft)
14.03.2016 18:45 6,9 C 49 % 1029,9 hPa 0,0 l/m 0,0 km/h (0 Bft) NO 36 0 min 0,000 mm 0,0 UV-I 0 W/m -3,1 C 6,9 C 0,0 km/h (0 Bft)
14.03.2016 18:50 6,7 C 50 % 1029,8 hPa 0,0 l/m 0,0 km/h (0 Bft) N-NO 23 0 min 0,000 mm 0,0 UV-I 0 W/m -3,0 C 6,7 C 0,0 km/h (0 Bft)
14.03.2016 18:55 6,5 C 50 % 1029,7 hPa 0,0 l/m 0,0 km/h (0 Bft) N-NO 26 0 min 0,000 mm 0,0 UV-I 0 W/m -3,2 C 6,5 C 0,0 km/h (0 Bft)
14.03.2016 19:00 6,3 C 51 % 1029,8 hPa 0,0 l/m 0,0 km/h (0 Bft) N-NO 32 0 min 0,000 mm 0,0 UV-I 0 W/m -3,1 C 6,3 C 0,0 km/h (0 Bft)
14.03.2016 19:05 6,1 C 52 % 1029,8 hPa 0,0 l/m 0,0 km/h (0 Bft) N 10 0 min 0,025 mm 0,0 UV-I 0 W/m -3,0 C 6,1 C 0,0 km/h (0 Bft)
14.03.2016 19:10 5,9 C 53 % 1029,9 hPa 0,0 l/m 0,0 km/h (0 Bft) N 355 0 min 0,000 mm 0,0 UV-I 0 W/m -2,9 C 5,9 C 0,0 km/h (0 Bft)
14.03.2016 19:15 5,7 C 54 % 1029,9 hPa 0,0 l/m 0,0 km/h (0 Bft) N 5 0 min 0,000 mm 0,0 UV-I 0 W/m -2,9 C 5,7 C 0,0 km/h (0 Bft)
14.03.2016 19:20 5,6 C 55 % 1029,8 hPa 0,0 l/m 0,0 km/h (0 Bft) N-NO 19 0 min 0,000 mm 0,0 UV-I 0 W/m -2,7 C 5,6 C 0,0 km/h (0 Bft)
14.03.2016 19:25 5,4 C 55 % 1029,9 hPa 0,0 l/m 0,0 km/h (0 Bft) N-NO 19 0 min 0,000 mm 0,0 UV-I 0 W/m -2,9 C 5,4 C 0,0 km/h (0 Bft)
14.03.2016 19:30 5,3 C 56 % 1029,9 hPa 0,0 l/m 0,0 km/h (0 Bft) NO 37 0 min 0,000 mm 0,0 UV-I 0 W/m -2,8 C 5,3 C 0,0 km/h (0 Bft)
14.03.2016 19:35 5,2 C 56 % 1029,8 hPa 0,0 l/m 0,0 km/h (0 Bft) NO 35 0 min 0,000 mm 0,0 UV-I 0 W/m -2,8 C 5,2 C 0,0 km/h (0 Bft)
14.03.2016 19:40 5,1 C 56 % 1029,8 hPa 0,0 l/m 0,0 km/h (0 Bft) NO 40 0 min 0,000 mm 0,0 UV-I 0 W/m -2,9 C 5,1 C 0,0 km/h (0 Bft)
14.03.2016 19:45 4,9 C 57 % 1029,7 hPa 0,0 l/m 0,0 km/h (0 Bft) NO 40 0 min 0,000 mm 0,0 UV-I 0 W/m -2,9 C 4,9 C 0,0 km/h (0 Bft)
14.03.2016 19:50 4,8 C 57 % 1029,6 hPa 0,0 l/m 0,0 km/h (0 Bft) N-NO 13 0 min 0,000 mm 0,0 UV-I 0 W/m -3,0 C 4,8 C 0,0 km/h (0 Bft)
14.03.2016 19:55 4,7 C 58 % 1029,6 hPa 0,0 l/m 0,0 km/h (0 Bft) N 11 0 min 0,000 mm 0,0 UV-I 0 W/m -2,8 C 4,7 C 0,0 km/h (0 Bft)
14.03.2016 20:00 4,6 C 58 % 1029,6 hPa 0,0 l/m 0,0 km/h (0 Bft) N 355 0 min 0,000 mm 0,0 UV-I 0 W/m -2,9 C 4,6 C 0,0 km/h (0 Bft)
14.03.2016 20:05 4,6 C 58 % 1029,6 hPa 0,0 l/m 0,0 km/h (0 Bft) NO 35 0 min 0,025 mm 0,0 UV-I 0 W/m -2,9 C 4,6 C 0,0 km/h (0 Bft)
14.03.2016 20:10 4,4 C 58 % 1029,5 hPa 0,0 l/m 0,0 km/h (0 Bft) NO 46 0 min 0,000 mm 0,0 UV-I 0 W/m -3,1 C 4,4 C 0,0 km/h (0 Bft)
14.03.2016 20:15 4,3 C 58 % 1029,3 hPa 0,0 l/m 0,0 km/h (0 Bft) NO 46 0 min 0,000 mm 0,0 UV-I 0 W/m -3,2 C 4,3 C 0,0 km/h (0 Bft)
14.03.2016 20:20 4,2 C 58 % 1029,4 hPa 0,0 l/m 0,0 km/h (0 Bft) NO 45 0 min 0,000 mm 0,0 UV-I 0 W/m -3,3 C 4,2 C 0,0 km/h (0 Bft)
14.03.2016 20:25 4,1 C 59 % 1029,3 hPa 0,0 l/m 0,0 km/h (0 Bft) NO 35 0 min 0,000 mm 0,0 UV-I 0 W/m -3,2 C 4,1 C 0,0 km/h (0 Bft)
14.03.2016 20:30 3,9 C 59 % 1029,2 hPa 0,0 l/m 0,0 km/h (0 Bft) NO 37 0 min 0,000 mm 0,0 UV-I 0 W/m -3,4 C 3,9 C 0,0 km/h (0 Bft)
14.03.2016 20:35 3,8 C 59 % 1029,1 hPa 0,0 l/m 0,0 km/h (0 Bft) NO 54 0 min 0,000 mm 0,0 UV-I 0 W/m -3,5 C 3,8 C 0,0 km/h (0 Bft)
14.03.2016 20:40 3,6 C 60 % 1029,2 hPa 0,0 l/m 0,0 km/h (0 Bft) NO 54 0 min 0,000 mm 0,0 UV-I 0 W/m -3,4 C 3,6 C 0,0 km/h (0 Bft)
14.03.2016 20:45 3,5 C 60 % 1029,2 hPa 0,0 l/m 0,0 km/h (0 Bft) NO 54 0 min 0,000 mm 0,0 UV-I 0 W/m -3,5 C 3,5 C 0,0 km/h (0 Bft)
14.03.2016 20:50 3,3 C 61 % 1029,3 hPa 0,0 l/m 0,0 km/h (0 Bft) NO 54 0 min 0,000 mm 0,0 UV-I 0 W/m -3,5 C 3,3 C 0,0 km/h (0 Bft)
14.03.2016 20:55 3,2 C 61 % 1029,3 hPa 0,0 l/m 0,0 km/h (0 Bft) NO 54 0 min 0,000 mm 0,0 UV-I 0 W/m -3,6 C 3,2 C 0,0 km/h (0 Bft)
14.03.2016 21:00 3,1 C 61 % 1029,2 hPa 0,0 l/m 0,0 km/h (0 Bft) NO 54 0 min 0,000 mm 0,0 UV-I 0 W/m -3,7 C 3,1 C 0,0 km/h (0 Bft)
14.03.2016 21:05 3,1 C 61 % 1029,2 hPa 0,0 l/m 0,0 km/h (0 Bft) NO 54 0 min 0,026 mm 0,0 UV-I 0 W/m -3,7 C 3,1 C 0,0 km/h (0 Bft)
14.03.2016 21:10 3,1 C 62 % 1029,1 hPa 0,0 l/m 0,0 km/h (0 Bft) O-NO 68 0 min 0,000 mm 0,0 UV-I 0 W/m -3,5 C 3,1 C 0,0 km/h (0 Bft)
14.03.2016 21:15 2,9 C 62 % 1029,1 hPa 0,0 l/m 0,0 km/h (0 Bft) O-NO 68 0 min 0,000 mm 0,0 UV-I 0 W/m -3,6 C 2,9 C 0,0 km/h (0 Bft)
14.03.2016 21:20 2,8 C 63 % 1029,1 hPa 0,0 l/m 0,0 km/h (0 Bft) O-NO 68 0 min 0,000 mm 0,0 UV-I 0 W/m -3,5 C 2,8 C 0,0 km/h (0 Bft)
14.03.2016 21:25 2,7 C 64 % 1029,1 hPa 0,0 l/m 0,0 km/h (0 Bft) O-NO 68 0 min 0,000 mm 0,0 UV-I 0 W/m -3,4 C 2,7 C 0,0 km/h (0 Bft)
14.03.2016 21:30 2,6 C 66 % 1029,2 hPa 0,0 l/m 0,0 km/h (0 Bft) O-NO 68 0 min 0,000 mm 0,0 UV-I 0 W/m -3,1 C 2,6 C 0,0 km/h (0 Bft)
14.03.2016 21:35 2,2 C 68 % 1029,2 hPa 0,0 l/m 0,0 km/h (0 Bft) O-NO 68 0 min 0,000 mm 0,0 UV-I 0 W/m -3,1 C 2,2 C 0,0 km/h (0 Bft)
14.03.2016 21:40 1,8 C 69 % 1029,2 hPa 0,0 l/m 0,0 km/h (0 Bft) W 265 0 min 0,000 mm 0,0 UV-I 0 W/m -3,3 C 1,8 C 0,0 km/h (0 Bft)
14.03.2016 21:45 1,6 C 70 % 1029,2 hPa 0,0 l/m 0,0 km/h (0 Bft) W 265 0 min 0,000 mm 0,0 UV-I 0 W/m -3,3 C 1,6 C 0,0 km/h (0 Bft)
14.03.2016 21:50 1,4 C 70 % 1029,2 hPa 0,0 l/m 0,0 km/h (0 Bft) W 265 0 min 0,000 mm 0,0 UV-I 0 W/m -3,5 C 1,4 C 0,0 km/h (0 Bft)
14.03.2016 21:55 1,3 C 71 % 1029,2 hPa 0,0 l/m 0,0 km/h (0 Bft) W 265 0 min 0,000 mm 0,0 UV-I 0 W/m -3,4 C 1,3 C 0,0 km/h (0 Bft)
14.03.2016 22:00 1,3 C 70 % 1029,2 hPa 0,0 l/m 0,0 km/h (0 Bft) W 265 0 min 0,000 mm 0,0 UV-I 0 W/m -3,6 C 1,3 C 0,0 km/h (0 Bft)
14.03.2016 22:05 1,4 C 69 % 1029,1 hPa 0,0 l/m 0,0 km/h (0 Bft) O-NO 65 0 min 0,025 mm 0,0 UV-I 0 W/m -3,7 C 1,4 C 0,0 km/h (0 Bft)
14.03.2016 22:10 1,6 C 69 % 1029,0 hPa 0,0 l/m 0,0 km/h (0 Bft) O-NO 65 0 min 0,000 mm 0,0 UV-I 0 W/m -3,5 C 1,6 C 0,0 km/h (0 Bft)
14.03.2016 22:15 1,8 C 69 % 1029,0 hPa 0,0 l/m 0,0 km/h (0 Bft) O 98 0 min 0,000 mm 0,0 UV-I 0 W/m -3,3 C 1,8 C 0,0 km/h (0 Bft)
14.03.2016 22:20 1,8 C 69 % 1029,0 hPa 0,0 l/m 0,0 km/h (0 Bft) O 98 0 min 0,000 mm 0,0 UV-I 0 W/m -3,3 C 1,8 C 0,0 km/h (0 Bft)
14.03.2016 22:25 1,7 C 70 % 1028,9 hPa 0,0 l/m 0,0 km/h (0 Bft) O 98 0 min 0,000 mm 0,0 UV-I 0 W/m -3,2 C 1,7 C 0,0 km/h (0 Bft)
14.03.2016 22:30 1,5 C 71 % 1028,9 hPa 0,0 l/m 0,0 km/h (0 Bft) O 98 0 min 0,000 mm 0,0 UV-I 0 W/m -3,2 C 1,5 C 0,0 km/h (0 Bft)
14.03.2016 22:35 1,2 C 72 % 1028,9 hPa 0,0 l/m 0,0 km/h (0 Bft) SW 223 0 min 0,000 mm 0,0 UV-I 0 W/m -3,3 C 1,2 C 0,0 km/h (0 Bft)
14.03.2016 22:40 0,9 C 74 % 1029,0 hPa 0,0 l/m 0,0 km/h (0 Bft) SW 223 0 min 0,000 mm 0,0 UV-I 0 W/m -3,2 C 0,9 C 0,0 km/h (0 Bft)
14.03.2016 22:45 0,7 C 74 % 1029,1 hPa 0,0 l/m 0,0 km/h (0 Bft) SW 223 0 min 0,000 mm 0,0 UV-I 0 W/m -3,4 C 0,7 C 0,0 km/h (0 Bft)
14.03.2016 22:50 0,7 C 74 % 1029,1 hPa 0,0 l/m 0,0 km/h (0 Bft) SW 223 0 min 0,000 mm 0,0 UV-I 0 W/m -3,4 C 0,7 C 0,0 km/h (0 Bft)
14.03.2016 22:55 0,6 C 75 % 1029,1 hPa 0,0 l/m 0,0 km/h (0 Bft) SW 223 0 min 0,000 mm 0,0 UV-I 0 W/m -3,3 C 0,6 C 0,0 km/h (0 Bft)
14.03.2016 23:00 0,5 C 75 % 1029,1 hPa 0,0 l/m 0,0 km/h (0 Bft) SW 223 0 min 0,000 mm 0,0 UV-I 0 W/m -3,4 C 0,5 C 0,0 km/h (0 Bft)
14.03.2016 23:05 0,4 C 75 % 1029,1 hPa 0,0 l/m 0,0 km/h (0 Bft) SW 223 0 min 0,026 mm 0,0 UV-I 0 W/m -3,5 C 0,4 C 0,0 km/h (0 Bft)
14.03.2016 23:10 0,3 C 75 % 1029,1 hPa 0,0 l/m 0,0 km/h (0 Bft) SW 223 0 min 0,000 mm 0,0 UV-I 0 W/m -3,6 C 0,3 C 0,0 km/h (0 Bft)
14.03.2016 23:15 0,2 C 76 % 1029,0 hPa 0,0 l/m 0,0 km/h (0 Bft) SW 223 0 min 0,000 mm 0,0 UV-I 0 W/m -3,5 C 0,2 C 0,0 km/h (0 Bft)
14.03.2016 23:20 0,1 C 76 % 1029,1 hPa 0,0 l/m 0,0 km/h (0 Bft) SW 223 0 min 0,000 mm 0,0 UV-I 0 W/m -3,6 C 0,1 C 0,0 km/h (0 Bft)
14.03.2016 23:25 0,1 C 76 % 1029,0 hPa 0,0 l/m 0,0 km/h (0 Bft) SW 223 0 min 0,000 mm 0,0 UV-I 0 W/m -3,6 C 0,1 C 0,0 km/h (0 Bft)
14.03.2016 23:30 0,0 C 76 % 1029,0 hPa 0,0 l/m 0,0 km/h (0 Bft) SW 223 0 min 0,000 mm 0,0 UV-I 0 W/m -3,7 C 0,0 C 0,0 km/h (0 Bft)
14.03.2016 23:35 -0,2 C 77 % 1029,0 hPa 0,0 l/m 0,0 km/h (0 Bft) SW 223 0 min 0,000 mm 0,0 UV-I 0 W/m -3,7 C -0,2 C 0,0 km/h (0 Bft)
14.03.2016 23:40 -0,2 C 78 % 1028,9 hPa 0,0 l/m 0,0 km/h (0 Bft) SW 223 0 min 0,000 mm 0,0 UV-I 0 W/m -3,6 C -0,2 C 0,0 km/h (0 Bft)
14.03.2016 23:45 -0,3 C 78 % 1029,0 hPa 0,0 l/m 0,0 km/h (0 Bft) SW 223 0 min 0,000 mm 0,0 UV-I 0 W/m -3,7 C -0,3 C 0,0 km/h (0 Bft)
14.03.2016 23:50 -0,4 C 78 % 1029,0 hPa 0,0 l/m 0,0 km/h (0 Bft) SW 223 0 min 0,000 mm 0,0 UV-I 0 W/m -3,8 C -0,4 C 0,0 km/h (0 Bft)
14.03.2016 23:55 -0,5 C 78 % 1029,0 hPa 0,0 l/m 0,0 km/h (0 Bft) SW 223 0 min 0,000 mm 0,0 UV-I 0 W/m -3,9 C -0,5 C 0,0 km/h (0 Bft)
_ Min-Zeit 23:55 16:35 22:25 - 01:00 - - - - - - 18:00 06:00 01:00
Minimum _ -0,5 C 36 % 1028,9 hPa - 0,0 km/h (0 Bft) - - - - - - -4,6 C -6,5 C 0,0 km/h (0 Bft)
_ Max-Zeit 16:15 01:30 01:35 00:00 09:20 - - 07:25 14:05 12:35 13:20 12:50 15:50 10:35
Maximum _ 11,6 C 83 % 1034,2 hPa 0,0 l/m 14,9 km/h
NO (3 Bft)
- - 5 min 0,305 mm 3,1 UV-I 661 W/m -0,0 C 11,4 C 33,8 km/h
O-NO (5 Bft)
Durchschnitt _ 3,9 C 64 % 1031,9 hPa #0,0 l/m 5,6 km/h (1 Bft) O-NO - #10:30 h #2,388 mm 1,8 UV-I 353 W/m -2,8 C 2,6 C 13,8 km/h (3 Bft)